Date String (YYYY-MM-DD hh:mm:ss) UTC,Instrument flags,absolute air pressure of the measurement (hPa),sample flow rate (lpm),inlet stack bypass flow (lpm),air temperature of the measurement (°C),ambient temperature measured by the external sensor (°C),aerosol sample conditioner tube jacket temperature (°C),OPC LED temperature (°C),internal box temperature (°C),relative humidity of the measurement (%),span deviation,mass concentration of particles derived from Lorenz-Mie calculation of OPC scattering (μg/m³),mass concentration of particles derived from Lorenz-Mie calculation of OPC scattering (μg/m³),mass concentration of particles derived from Lorenz-Mie calculation of OPC scattering (μg/m³)
DateTimeUTC,F1_M11,P_M11,Q1_M11,Q2_M11,T1_M11,T2_M11,T3_M11,T4_M11,T5_M11,U1_M11,ZSPAN_M11,X0_M11,X2_M11,X1_M11
2024-02-02 02:00:00,SystemResetWarning,0823.0,4.99,000.00,025.2,024.4,000.0,033.5,027.0,09.6,0000.0,0012.90,0003.64,0002.82
2024-02-02 02:01:00,SystemResetWarning,0823.0,4.99,000.00,025.2,024.5,000.0,033.5,027.0,09.6,0000.0,0013.51,0003.70,0002.90
2024-02-02 02:02:00,SystemResetWarning,0823.0,5.00,000.00,025.2,024.6,000.0,033.5,027.1,09.6,0000.0,0012.96,0003.70,0002.93
2024-02-02 02:03:00,SystemResetWarning,0823.0,5.01,000.00,025.3,024.7,000.0,033.6,027.1,09.5,0000.0,0012.96,0003.72,0002.98
2024-02-02 02:04:00,SystemResetWarning,0823.0,5.00,000.00,025.3,024.7,000.0,033.6,027.2,09.5,0000.0,0013.17,0003.74,0003.03
2024-02-02 02:05:00,SystemResetWarning,0823.0,4.99,000.00,025.3,024.8,000.0,033.6,027.2,09.4,0000.0,0013.69,0003.75,0003.05
2024-02-02 02:06:00,SystemResetWarning,0822.9,5.00,000.00,025.4,024.9,000.0,033.6,027.2,09.4,0000.0,0014.68,0003.80,0003.09
2024-02-02 02:07:00,SystemResetWarning,0822.9,5.00,000.00,025.4,024.9,000.0,033.6,027.3,09.3,0000.0,0015.00,0003.80,0003.12
2024-02-02 02:08:00,SystemResetWarning,0822.9,5.00,000.00,025.4,024.9,000.0,033.6,027.3,09.3,0000.0,0015.37,0003.75,0003.06
2024-02-02 02:09:00,SystemResetWarning,0823.1,5.00,000.00,025.5,025.0,000.0,033.7,027.3,09.3,0000.0,0015.61,0003.65,0002.97
2024-02-02 02:10:00,SystemResetWarning,0823.1,5.01,000.00,025.5,025.0,000.0,033.7,027.3,09.4,0000.0,0015.25,0003.52,0002.83
2024-02-02 02:11:00,SystemResetWarning,0823.1,5.00,000.00,025.5,025.0,000.0,033.7,027.4,09.4,0000.0,0014.81,0003.39,0002.68
2024-02-02 02:12:00,SystemResetWarning,0823.0,5.00,000.00,025.6,025.0,000.0,033.7,027.4,09.3,0000.0,0014.24,0003.30,0002.58
2024-02-02 02:13:00,SystemResetWarning,0822.9,4.98,000.00,025.6,025.1,000.0,033.8,027.4,09.3,0000.0,0014.57,0003.31,0002.54
2024-02-02 02:14:00,SystemResetWarning,0823.0,5.00,000.00,025.6,025.1,000.0,033.8,027.5,09.3,0000.0,0014.54,0003.35,0002.54
2024-02-02 02:15:00,SystemResetWarning,0823.0,5.00,000.00,025.6,025.1,000.0,033.8,027.5,09.3,0000.0,0014.08,0003.36,0002.51
2024-02-02 02:16:00,SystemResetWarning,0823.0,5.00,000.00,025.7,025.1,000.0,033.8,027.5,09.2,0000.0,0013.50,0003.34,0002.48
2024-02-02 02:17:00,SystemResetWarning,0822.9,5.00,000.00,025.7,025.2,000.0,033.9,027.5,09.2,0000.0,0013.29,0003.34,0002.46
2024-02-02 02:18:00,SystemResetWarning,0822.8,4.99,000.00,025.7,025.2,000.0,033.9,027.6,09.2,0000.0,0013.09,0003.34,0002.42
2024-02-02 02:19:00,SystemResetWarning,0822.9,4.99,000.00,025.7,025.2,000.0,033.9,027.6,09.2,0000.0,0012.94,0003.36,0002.42
2024-02-02 02:20:00,SystemResetWarning,0822.8,5.01,000.00,025.8,025.2,000.0,033.9,027.6,09.2,0000.0,0012.15,0003.37,0002.42
2024-02-02 02:21:00,SystemResetWarning,0822.8,5.01,000.00,025.8,025.2,000.0,033.9,027.6,09.2,0000.0,0011.57,0003.40,0002.44
2024-02-02 02:22:00,SystemResetWarning,0822.9,5.00,000.00,025.8,025.2,000.0,034.0,027.6,09.2,0000.0,0010.89,0003.45,0002.45
2024-02-02 02:23:00,SystemResetWarning,0822.9,5.00,000.00,025.8,025.3,000.0,034.0,027.6,09.2,0000.0,0010.90,0003.48,0002.48
2024-02-02 02:24:00,SystemResetWarning,0822.9,5.02,000.00,025.8,025.3,000.0,034.0,027.6,09.2,0000.0,0009.98,0003.44,0002.49
2024-02-02 02:25:00,SystemResetWarning,0823.0,4.99,000.00,025.9,025.3,000.0,034.0,027.7,09.2,0000.0,0009.33,0003.40,0002.48
2024-02-02 02:26:00,SystemResetWarning,0823.1,5.00,000.00,025.9,025.3,000.0,034.0,027.7,09.1,0000.0,0008.99,0003.36,0002.47
2024-02-02 02:27:00,SystemResetWarning,0823.0,5.02,000.00,025.9,025.3,000.0,034.1,027.7,09.1,0000.0,0009.11,0003.38,0002.49
2024-02-02 02:28:00,SystemResetWarning,0823.0,5.00,000.00,025.9,025.3,000.0,034.1,027.7,09.1,0000.0,0008.86,0003.43,0002.54
2024-02-02 02:29:00,SystemResetWarning,0823.0,4.98,000.00,025.9,025.3,000.0,034.1,027.7,09.1,0000.0,0008.09,0003.45,0002.56
2024-02-02 02:30:00,SystemResetWarning,0822.8,5.01,000.00,025.9,025.4,000.0,034.1,027.8,09.1,0000.0,0008.98,0003.46,0002.57
2024-02-02 02:31:00,SystemResetWarning,0822.9,5.02,000.00,026.0,025.4,000.0,034.1,027.8,09.1,0000.0,0009.95,0003.51,0002.61
2024-02-02 02:32:00,SystemResetWarning,0822.9,4.99,000.00,026.0,025.4,000.0,034.2,027.8,09.1,0000.0,0010.42,0003.59,0002.67
2024-02-02 02:33:00,SystemResetWarning,0822.9,4.99,000.00,026.0,025.4,000.0,034.2,027.8,09.1,0000.0,0011.19,0003.61,0002.70
2024-02-02 02:34:00,SystemResetWarning,0822.9,5.01,000.00,026.0,025.4,000.0,034.2,027.8,09.1,0000.0,0011.80,0003.65,0002.73
2024-02-02 02:35:00,SystemResetWarning,0822.9,5.01,000.00,026.0,025.4,000.0,034.2,027.8,09.1,0000.0,0012.82,0003.73,0002.75
2024-02-02 02:36:00,SystemResetWarning,0823.0,5.00,000.00,026.0,025.4,000.0,034.2,027.9,09.1,0000.0,0014.01,0003.82,0002.77
2024-02-02 02:37:00,SystemResetWarning,0822.9,4.99,000.00,026.0,025.4,000.0,034.3,027.9,09.0,0000.0,0014.99,0003.86,0002.77
2024-02-02 02:38:00,SystemResetWarning,0822.9,4.99,000.00,026.0,025.4,000.0,034.3,027.9,09.1,0000.0,0014.88,0003.87,0002.78
2024-02-02 02:39:00,SystemResetWarning,0822.9,5.01,000.00,026.1,025.5,000.0,034.3,027.9,09.0,0000.0,0015.42,0003.85,0002.78
2024-02-02 02:40:00,SystemResetWarning,0822.9,5.01,000.00,026.1,025.5,000.0,034.3,027.9,09.0,0000.0,0016.41,0003.86,0002.79
2024-02-02 02:41:00,SystemResetWarning,0822.9,5.00,000.00,026.1,025.5,000.0,034.3,027.9,09.1,0000.0,0015.51,0003.92,0002.81
2024-02-02 02:42:00,SystemResetWarning,0823.0,4.99,000.00,026.1,025.5,000.0,034.3,027.9,09.1,0000.0,0014.83,0003.95,0002.80
2024-02-02 02:43:00,SystemResetWarning,0822.9,5.00,000.00,026.1,025.5,000.0,034.3,027.9,09.1,0000.0,0014.96,0003.91,0002.79
2024-02-02 02:44:00,SystemResetWarning,0822.9,5.00,000.00,026.1,025.5,000.0,034.4,027.9,09.0,0000.0,0014.20,0003.87,0002.76
2024-02-02 02:45:00,SystemResetWarning,0822.9,5.00,000.00,026.1,025.5,000.0,034.4,027.9,09.0,0000.0,0013.99,0003.84,0002.71
2024-02-02 02:46:00,SystemResetWarning,0823.0,5.00,000.00,026.1,025.5,000.0,034.4,027.9,09.0,0000.0,0013.50,0003.80,0002.65
2024-02-02 02:47:00,SystemResetWarning,0823.0,5.01,000.00,026.1,025.5,000.0,034.4,027.9,09.1,0000.0,0013.33,0003.72,0002.60
2024-02-02 02:48:00,SystemResetWarning,0822.9,5.01,000.00,026.2,025.5,000.0,034.4,027.9,09.1,0000.0,0012.49,0003.65,0002.54
2024-02-02 02:49:00,SystemResetWarning,0822.9,4.99,000.00,026.2,025.5,000.0,034.4,027.9,09.1,0000.0,0012.41,0003.58,0002.47
2024-02-02 02:50:00,SystemResetWarning,0823.0,4.99,000.00,026.2,025.5,000.0,034.4,027.9,09.0,0000.0,0011.52,0003.48,0002.37
2024-02-02 02:51:00,SystemResetWarning,0823.0,5.02,000.00,026.2,025.5,000.0,034.4,028.0,09.0,0000.0,0010.74,0003.39,0002.27
2024-02-02 02:52:00,SystemResetWarning,0822.9,5.01,000.00,026.2,025.5,000.0,034.5,027.9,09.0,0000.0,0010.55,0003.32,0002.17
2024-02-02 02:53:00,SystemResetWarning,0822.9,5.00,000.00,026.2,025.5,000.0,034.5,027.9,09.1,0000.0,0010.48,0003.25,0002.12
2024-02-02 02:54:00,SystemResetWarning,0822.9,5.00,000.00,026.2,025.5,000.0,034.5,027.9,09.1,0000.0,0010.13,0003.23,0002.08
2024-02-02 02:55:00,SystemResetWarning,0823.0,5.01,000.00,026.2,025.5,000.0,034.5,027.9,09.1,0000.0,0010.04,0003.21,0002.03
2024-02-02 02:56:00,SystemResetWarning,0823.1,4.99,000.00,026.2,025.5,000.0,034.5,027.9,09.2,0000.0,0009.74,0003.20,0002.01
2024-02-02 02:57:00,SystemResetWarning,0822.9,4.99,000.00,026.2,025.5,000.0,034.5,027.9,09.1,0000.0,0009.74,0003.14,0001.97
2024-02-02 02:58:00,SystemResetWarning,0822.9,5.00,000.00,026.2,025.5,000.0,034.5,027.9,09.2,0000.0,0008.91,0003.08,0001.94
2024-02-02 02:59:00,SystemResetWarning,0822.9,5.00,000.00,026.2,025.5,000.0,034.5,027.9,09.2,0000.0,0008.70,0003.05,0001.91
